Bunyu Airport


Codes: WALV/BYQ
Name: Bunyu Airport
City: Bunju Island
Country: Indonesia
Elevation: 118 ft.
Wikipedia:

Photos at Bunyu Airport


   Photos courtesy of SpottingLog. You can add your own sightings and photos by signing up for a free trial today.



No photos found.

Weather at Bunyu Airport


Time (UTC)DescriptionTempratureWindCloud coverageVisibilityPressureHumidity
25-Jun-2024 12:00Light Rain28°C7 mph, E99%10000m1008hPa77%
25-Jun-2024 15:00Light Rain28°C11 mph, E90%9260m1008hPa78%
25-Jun-2024 18:00Moderate Rain28°C4 mph, SE58%10000m1008hPa75%
25-Jun-2024 21:00Light Rain28°C2 mph, S25%10000m1008hPa72%
26-Jun-2024 00:00Light Rain27°C4 mph, SW33%10000m1010hPa76%
26-Jun-2024 03:00Few Clouds27°C2 mph, SW24%10000m1009hPa75%
26-Jun-2024 06:00Scattered Clouds28°C4 mph, SE44%10000m1007hPa73%
26-Jun-2024 09:00Broken Clouds28°C9 mph, SE74%10000m1006hPa72%
26-Jun-2024 12:00Broken Clouds29°C11 mph, SE63%10000m1009hPa74%
26-Jun-2024 15:00Broken Clouds29°C9 mph, SE63%10000m1010hPa75%
26-Jun-2024 18:00Light Rain28°C7 mph, SE76%10000m1009hPa79%
26-Jun-2024 21:00Moderate Rain28°C9 mph, SE100%10000m1009hPa75%
27-Jun-2024 00:00Light Rain28°C13 mph, SE100%10000m1011hPa72%
27-Jun-2024 03:00Light Rain27°C13 mph, SE100%10000m1011hPa80%
27-Jun-2024 06:00Light Rain28°C9 mph, SE100%10000m1009hPa76%
27-Jun-2024 09:00Overcast Clouds28°C4 mph, SE100%10000m1008hPa76%
27-Jun-2024 12:00Overcast Clouds28°C11 mph, E100%10000m1011hPa75%
27-Jun-2024 15:00Overcast Clouds28°C9 mph, SE99%10000m1011hPa75%
27-Jun-2024 18:00Overcast Clouds28°C2 mph, SE100%10000m1010hPa73%
27-Jun-2024 21:00Broken Clouds28°C4 mph, W77%10000m1010hPa76%
28-Jun-2024 00:00Broken Clouds27°C7 mph, W66%10000m1012hPa82%
28-Jun-2024 03:00Broken Clouds26°C4 mph, W77%10000m1011hPa84%
28-Jun-2024 06:00Broken Clouds28°C4 mph, SE77%10000m1009hPa77%
28-Jun-2024 09:00Overcast Clouds28°C11 mph, E100%10000m1009hPa76%
28-Jun-2024 12:00Overcast Clouds28°C13 mph, E100%10000m1010hPa77%
28-Jun-2024 15:00Light Rain28°C11 mph, NE100%10000m1011hPa76%
28-Jun-2024 18:00Light Rain27°C9 mph, NE93%9810m1009hPa82%
28-Jun-2024 21:00Light Rain28°C11 mph, E88%10000m1010hPa72%
29-Jun-2024 00:00Light Rain27°C7 mph, E93%7792m1012hPa77%
29-Jun-2024 03:00Light Rain27°C7 mph, E94%10000m1012hPa77%
29-Jun-2024 06:00Light Rain26°C7 mph, S97%10000m1010hPa85%
29-Jun-2024 09:00Light Rain26°C7 mph, SW99%10000m1010hPa82%
29-Jun-2024 12:00Overcast Clouds26°C7 mph, SW97%10000m1011hPa81%
29-Jun-2024 15:00Overcast Clouds26°C9 mph, W98%10000m1012hPa82%
29-Jun-2024 18:00Overcast Clouds26°C7 mph, W99%10000m1010hPa81%
29-Jun-2024 21:00Overcast Clouds26°C7 mph, W100%10000m1010hPa82%
30-Jun-2024 00:00Overcast Clouds26°C7 mph, W98%10000m1011hPa82%
30-Jun-2024 03:00Broken Clouds26°C4 mph, NW51%10000m1011hPa81%
30-Jun-2024 06:00Broken Clouds27°C4 mph, SE52%10000m1009hPa76%
30-Jun-2024 09:00Broken Clouds28°C7 mph, E58%10000m1008hPa73%